BMCB-26 Weather Reports


time (UTC)temp
C
wind
direction
speed
KPH
gust
KPH
rain 1hr
cm
rain 24hr
cm
rain mn
cm
humidity
%
barometer
mb
20260507073101 11 0 0.0 0.0 0.00 0.15 0.00 79 1013.2
20260507072059 11 0 0.0 0.0 0.00 0.15 0.00 80 1013.1
20260507070056 10 0 0.0 0.0 0.00 0.15 0.00 83 1013.2
20260507065053 10 0 0.0 0.0 0.00 0.18 0.00 85 1013.2
20260507064011 9 0 0.0 0.0 0.00 0.20 0.00 87 1013.1
20260507063015 9 0 0.0 0.0 0.00 0.23 0.00 91 1013.0
20260507061021 8 0 0.0 0.0 0.00 0.25 0.00 96 1012.9
20260507060012 8 0 0.0 0.0 0.00 0.25 0.00 98 1012.9
20260507054013 7 0 0.0 0.0 0.00 0.25 0.00 99 1012.8
20260507053012 7 0 0.0 0.0 0.00 0.38 0.00 99 1012.7
20260507044021 7 0 0.0 0.0 0.00 0.38 0.00 10 1012.2
20260507043020 7 0 0.0 0.0 0.00 0.43 0.00 10 1012.1
20260507042021 7 0 0.0 0.0 0.00 0.43 0.00 10 1012.1
20260507040021 7 0 0.0 0.0 0.00 0.46 0.00 10 1011.8
20260507035014 7 0 0.0 0.0 0.00 0.48 0.00 99 1011.8
20260507033016 7 0 0.0 0.0 0.00 0.51 0.00 99 1011.8
20260507025015 7 0 0.0 0.0 0.00 0.61 0.00 99 1011.6
20260507023015 7 0 0.0 0.0 0.00 0.61 0.00 98 1011.5
20260507022015 7 0 0.0 0.0 0.00 0.66 0.00 97 1011.4
20260507020021 7 0 0.0 0.0 0.00 0.71 0.00 96 1011.2
20260507015016 7 0 0.0 0.0 0.00 0.71 0.00 96 1011.2
20260507013015 7 0 0.0 0.0 0.00 0.74 0.00 95 1011.3
20260507011012 7 0 0.0 0.0 0.00 0.79 0.00 94 1011.3
20260507004013 7 0 0.0 0.0 0.00 0.89 0.00 93 1011.2
20260507003015 7 0 0.0 0.0 0.00 0.89 0.00 95 1011.1
20260507002021 7 0 0.0 0.0 0.00 0.91 0.00 96 1011.1
20260507001012 7 0 0.0 0.0 0.00 0.91 0.00 97 1011.0
20260507000054 7 0 0.0 0.0 0.00 1.12 0.00 97 1011.0
20260506235015 7 0 0.0 0.0 0.00 1.12 0.00 97 1010.9
20260506233016 7 0 0.0 0.0 0.00 1.12 0.00 97 1010.8
20260506231015 8 0 0.0 0.0 0.00 1.12 0.00 96 1010.7
20260506225029 8 0 0.0 0.0 0.00 1.17 0.00 96 1010.6
20260506221016 8 0 0.0 0.0 0.00 1.27 0.00 95 1010.3
20260506220111 8 0 0.0 0.0 0.00 1.27 0.00 95 1010.2
20260506213105 8 0 0.0 0.0 0.00 1.35 1.27 93 1010.0
20260506212025 8 0 0.0 0.0 0.00 1.37 1.27 93 1009.9
20260506210043 8 0 0.0 0.0 0.00 1.45 1.27 92 1009.6
20260506202021 8 0 0.0 0.0 0.00 1.55 1.27 91 1009.5
20260506194016 7 0 0.0 0.0 0.00 1.63 1.27 89 1009.2
20260506192019 8 0 0.0 0.0 0.00 1.68 1.27 88 1009.0
20260506191049 8 0 0.0 0.0 0.00 1.68 1.27 90 1008.9
20260506190038 8 0 0.0 0.0 0.00 1.70 1.27 89 1008.7
20260506183104 9 0 0.0 0.0 0.00 1.78 1.27 88 1008.4
20260506182104 10 0 0.0 0.0 0.00 1.78 1.27 86 1008.3
20260506181021 10 0 0.0 0.0 0.00 1.88 1.27 84 1008.1
20260506180036 11 0 0.0 0.0 0.00 1.88 1.27 83 1007.9
20260506175022 11 0 0.0 0.0 0.00 1.88 1.27 84 1007.7
20260506174017 11 0 0.0 0.0 0.00 1.88 1.27 81 1007.6
20260506173016 11 0 0.0 0.0 0.00 1.88 1.27 83 1007.5
20260506172021 11 0 0.0 0.0 0.00 1.88 1.27 81 1007.3
20260506165016 12 0 0.0 0.0 0.00 1.88 1.27 80 1007.1
20260506164059 11 0 0.0 0.0 0.00 1.88 1.27 83 1007.1
20260506162055 11 0 0.0 0.0 0.00 1.88 1.27 85 1007.1
20260506161015 11 0 0.0 0.0 0.00 1.88 1.27 85 1007.2
20260506160015 11 0 0.0 0.0 0.00 1.88 1.27 84 1007.2
20260506154022 12 0 0.0 0.0 0.00 1.88 1.27 83 1006.9
20260506152016 12 0 0.0 0.0 0.00 1.88 1.27 84 1006.8
20260506150017 12 0 0.0 0.0 0.00 1.88 1.27 82 1006.8
20260506145100 12 0 0.0 0.0 0.00 1.88 1.27 85 1006.7
20260506143030 12 0 0.0 0.0 0.00 1.88 1.27 86 1006.8
20260506141056 12 0 0.0 0.0 0.00 1.88 1.27 87 1006.9
20260506140017 12 0 0.0 0.0 0.00 1.88 1.27 87 1006.9
20260506135057 11 0 0.0 0.0 0.00 1.88 1.27 87 1006.9
20260506132058 11 0 0.0 0.0 0.00 1.88 1.27 91 1007.0
20260506131022 10 0 0.0 0.0 0.00 1.88 1.27 91 1007.0
20260506130014 10 0 0.0 0.0 0.00 1.88 1.27 91 1007.0
20260506125016 10 0 0.0 0.0 0.00 1.88 1.27 90 1006.9
20260506123022 10 0 0.0 0.0 0.00 1.88 1.27 88 1006.8
20260506121016 11 0 0.0 0.0 0.00 1.88 1.27 88 1006.6
20260506114046 11 0 0.0 0.0 0.03 1.88 1.27 94 1006.6
20260506113057 10 0 0.0 0.0 0.03 1.88 1.27 95 1006.6
20260506112057 10 0 0.0 0.0 0.03 1.88 1.27 97 1006.7
20260506110054 10 0 0.0 0.0 0.03 1.88 1.27 96 1006.8
20260506104056 10 0 0.0 0.0 0.03 1.88 1.27 98 1006.7
20260506103056 9 0 0.0 0.0 0.00 1.85 1.27 98 1006.8
20260506102021 9 0 0.0 0.0 0.00 1.85 1.27 99 1006.7
20260506094029 8 0 0.0 0.0 0.08 1.91 1.27 99 1006.4
20260506092026 8 0 0.0 0.0 0.08 1.98 1.27 99 1006.3
20260506090023 8 0 0.0 0.0 0.08 1.96 1.24 10 1006.2
20260506085055 8 0 0.0 0.0 0.05 1.93 1.22 10 1006.1
20260506084022 8 0 0.0 0.0 0.05 1.93 1.22 10 1006.0
20260506081023 8 0 0.0 0.0 0.05 1.91 1.17 10 1005.8